Year,Month,Day,Hour,Minute,Value (Times are PST for temperature in C)
2015,05,07,00,00,11.00
2015,05,07,00,01,11.10
2015,05,07,00,02,11.10
2015,05,07,00,03,11.10
2015,05,07,00,04,11.10
2015,05,07,00,05,11.10
2015,05,07,00,06,11.10
2015,05,07,00,07,11.10
2015,05,07,00,08,11.10
2015,05,07,00,09,11.10
2015,05,07,00,10,11.10
2015,05,07,00,11,11.10
2015,05,07,00,12,11.10
2015,05,07,00,13,11.10
2015,05,07,00,14,11.10
2015,05,07,00,15,11.10
2015,05,07,00,16,11.20
2015,05,07,00,17,11.20
2015,05,07,00,18,11.20
2015,05,07,00,19,11.20
2015,05,07,00,20,11.20
2015,05,07,00,21,11.20
2015,05,07,00,22,11.20
2015,05,07,00,23,11.20
2015,05,07,00,24,11.20
2015,05,07,00,25,11.20
2015,05,07,00,26,11.20
2015,05,07,00,27,11.20
2015,05,07,00,28,11.20
2015,05,07,00,29,11.20
2015,05,07,00,30,11.20
2015,05,07,00,31,11.20
2015,05,07,00,32,11.20
2015,05,07,00,33,11.20
2015,05,07,00,34,11.20
2015,05,07,00,35,11.10
2015,05,07,00,36,11.10
2015,05,07,00,37,11.20
2015,05,07,00,38,11.20
2015,05,07,00,39,11.20
2015,05,07,00,40,11.20
2015,05,07,00,41,11.20
2015,05,07,00,42,11.20
2015,05,07,00,43,11.20
2015,05,07,00,44,11.20
2015,05,07,00,45,11.20
2015,05,07,00,46,11.20
2015,05,07,00,47,11.10
2015,05,07,00,48,11.10
2015,05,07,00,49,11.10
2015,05,07,00,50,11.10
2015,05,07,00,51,11.10
2015,05,07,00,52,11.10
2015,05,07,00,53,11.10
2015,05,07,00,54,11.10
2015,05,07,00,55,11.00
2015,05,07,00,56,11.00
2015,05,07,00,57,11.00
2015,05,07,00,58,10.90
2015,05,07,00,59,10.90
2015,05,07,01,00,10.80
2015,05,07,01,01,10.80
2015,05,07,01,02,10.70
2015,05,07,01,03,10.70
2015,05,07,01,04,10.60
2015,05,07,01,05,10.50
2015,05,07,01,06,10.40
2015,05,07,01,07,10.40
2015,05,07,01,08,10.30
2015,05,07,01,09,10.20
2015,05,07,01,10,10.20
2015,05,07,01,11,10.10
2015,05,07,01,12,10.10
2015,05,07,01,13,10.10
2015,05,07,01,14,10.10
2015,05,07,01,15,10.10
2015,05,07,01,16,10.10
2015,05,07,01,17,10.10
2015,05,07,01,18,10.10
2015,05,07,01,19,10.10
2015,05,07,01,20,10.10
2015,05,07,01,21,10.10
2015,05,07,01,22,10.10
2015,05,07,01,23,10.10
2015,05,07,01,24,10.10
2015,05,07,01,25,10.10
2015,05,07,01,26,10.10
2015,05,07,01,27,10.10
2015,05,07,01,28,10.20
2015,05,07,01,29,10.20
2015,05,07,01,30,10.20
2015,05,07,01,31,10.20
2015,05,07,01,32,10.20
2015,05,07,01,33,10.20
2015,05,07,01,34,10.20
2015,05,07,01,35,10.20
2015,05,07,01,36,10.20
2015,05,07,01,37,10.20
2015,05,07,01,38,10.20
2015,05,07,01,39,10.20
2015,05,07,01,40,10.20
2015,05,07,01,41,10.10
2015,05,07,01,42,10.10
2015,05,07,01,43,10.10
2015,05,07,01,44,10.10
2015,05,07,01,45,10.10
2015,05,07,01,46,10.10
2015,05,07,01,47,10.10
2015,05,07,01,48,10.10
2015,05,07,01,49,10.10
2015,05,07,01,50,10.00
2015,05,07,01,51,10.00
2015,05,07,01,52,9.90
2015,05,07,01,53,9.90
2015,05,07,01,54,9.90
2015,05,07,01,55,9.90
2015,05,07,01,56,9.90
2015,05,07,01,57,9.90
2015,05,07,01,58,9.90
2015,05,07,01,59,9.80
2015,05,07,02,00,9.80
2015,05,07,02,01,9.80
2015,05,07,02,02,9.80
2015,05,07,02,03,9.80
2015,05,07,02,04,9.80
2015,05,07,02,05,9.70
2015,05,07,02,06,9.70
2015,05,07,02,07,9.70
2015,05,07,02,08,9.70
2015,05,07,02,09,9.70
2015,05,07,02,10,9.70
2015,05,07,02,11,9.70
2015,05,07,02,12,9.70
2015,05,07,02,13,9.80
2015,05,07,02,14,9.80
2015,05,07,02,15,9.80
2015,05,07,02,16,9.80
2015,05,07,02,17,9.80
2015,05,07,02,18,9.80
2015,05,07,02,19,9.90
2015,05,07,02,20,9.90
2015,05,07,02,21,9.80
2015,05,07,02,22,9.80
2015,05,07,02,23,9.70
2015,05,07,02,24,9.60
2015,05,07,02,25,9.60
2015,05,07,02,26,9.60
2015,05,07,02,27,9.50
2015,05,07,02,28,9.40
2015,05,07,02,29,9.30
2015,05,07,02,30,9.20
2015,05,07,02,31,9.20
2015,05,07,02,32,9.10
2015,05,07,02,33,9.00
2015,05,07,02,34,9.00
2015,05,07,02,35,8.90
2015,05,07,02,36,8.90
2015,05,07,02,37,8.80
2015,05,07,02,38,8.80
2015,05,07,02,39,8.90
2015,05,07,02,40,8.90
2015,05,07,02,41,8.90
2015,05,07,02,42,8.90
2015,05,07,02,43,8.90
2015,05,07,02,44,9.00
2015,05,07,02,45,9.00
2015,05,07,02,46,9.10
2015,05,07,02,47,9.20
2015,05,07,02,48,9.40
2015,05,07,02,49,9.50
2015,05,07,02,50,9.60
2015,05,07,02,51,9.70
2015,05,07,02,52,9.80
2015,05,07,02,53,9.90
2015,05,07,02,54,10.00
2015,05,07,02,55,10.10
2015,05,07,02,56,10.10
2015,05,07,02,57,10.20
2015,05,07,02,58,10.20
2015,05,07,02,59,10.20
2015,05,07,03,00,10.20
2015,05,07,03,01,10.20
2015,05,07,03,02,10.30
2015,05,07,03,06,10.30
2015,05,07,03,07,10.30
2015,05,07,03,08,10.30
2015,05,07,03,09,10.20
2015,05,07,03,10,10.20
2015,05,07,03,11,10.20
2015,05,07,03,12,10.30
2015,05,07,03,13,10.30
2015,05,07,03,14,10.30
2015,05,07,03,15,10.30
2015,05,07,03,16,10.30
2015,05,07,03,17,10.30
2015,05,07,03,18,10.30
2015,05,07,03,19,10.30
2015,05,07,03,20,10.30
2015,05,07,03,21,10.30
2015,05,07,03,22,10.20
2015,05,07,03,23,10.20
2015,05,07,03,24,10.20
2015,05,07,03,25,10.20
2015,05,07,03,26,10.10
2015,05,07,03,27,10.10
2015,05,07,03,28,10.10
2015,05,07,03,29,10.10
2015,05,07,03,30,10.10
2015,05,07,03,31,10.10
2015,05,07,03,32,10.10
2015,05,07,03,33,10.10
2015,05,07,03,34,10.10
2015,05,07,03,35,10.10
2015,05,07,03,36,10.10
2015,05,07,03,37,10.10
2015,05,07,03,38,10.10
2015,05,07,03,39,10.10
2015,05,07,03,40,10.10
2015,05,07,03,41,10.10
2015,05,07,03,42,10.10
2015,05,07,03,43,10.10
2015,05,07,03,44,10.10
2015,05,07,03,45,10.10
2015,05,07,03,46,10.10
2015,05,07,03,47,10.10
2015,05,07,03,48,10.10
2015,05,07,03,49,10.20
2015,05,07,03,50,10.20
2015,05,07,03,51,10.20
2015,05,07,03,52,10.20
2015,05,07,03,53,10.20
2015,05,07,03,54,10.20
2015,05,07,03,55,10.30
2015,05,07,03,56,10.30
2015,05,07,03,57,10.30
2015,05,07,03,58,10.30
2015,05,07,03,59,10.30
2015,05,07,04,00,10.30
2015,05,07,04,01,10.30
2015,05,07,04,02,10.30
2015,05,07,04,03,10.30
2015,05,07,04,04,10.30
2015,05,07,04,05,10.30
2015,05,07,04,06,10.30
2015,05,07,04,07,10.30
2015,05,07,04,08,10.30
2015,05,07,04,09,10.30
2015,05,07,04,10,10.20
2015,05,07,04,11,10.20
2015,05,07,04,12,10.20
2015,05,07,04,13,10.20
2015,05,07,04,14,10.20
2015,05,07,04,15,10.20
2015,05,07,04,16,10.20
2015,05,07,04,17,10.10
2015,05,07,04,18,10.10
2015,05,07,04,19,10.10
2015,05,07,04,20,10.10
2015,05,07,04,21,10.10
2015,05,07,04,22,10.10
2015,05,07,04,23,10.10
2015,05,07,04,24,10.10
2015,05,07,04,25,10.10
2015,05,07,04,26,10.10
2015,05,07,04,27,10.10
2015,05,07,04,28,10.10
2015,05,07,04,29,10.10
2015,05,07,04,30,10.10
2015,05,07,04,31,10.10
2015,05,07,04,32,10.10
2015,05,07,04,33,10.10
2015,05,07,04,34,10.10
2015,05,07,04,35,10.10
2015,05,07,04,36,10.00
2015,05,07,04,37,10.00
2015,05,07,04,38,10.10
2015,05,07,04,39,10.10
2015,05,07,04,40,10.00
2015,05,07,04,41,10.10
2015,05,07,04,42,10.10
2015,05,07,04,43,10.10
2015,05,07,04,44,10.10
2015,05,07,04,45,10.10
2015,05,07,04,46,10.10
2015,05,07,04,47,10.10
2015,05,07,04,48,10.10
2015,05,07,04,49,10.10
2015,05,07,04,50,10.10
2015,05,07,04,51,10.10
2015,05,07,04,52,10.10
2015,05,07,04,53,10.10
2015,05,07,04,54,10.10
2015,05,07,04,55,10.10
2015,05,07,04,56,10.10
2015,05,07,04,57,10.10
2015,05,07,04,58,10.10
2015,05,07,04,59,10.10
2015,05,07,05,00,10.00
2015,05,07,05,01,10.00
2015,05,07,05,02,10.00
2015,05,07,05,03,9.90
2015,05,07,05,04,9.90
2015,05,07,05,05,9.90
2015,05,07,05,06,9.90
2015,05,07,05,07,9.80
2015,05,07,05,08,9.80
2015,05,07,05,09,9.80
2015,05,07,05,10,9.80
2015,05,07,05,11,9.80
2015,05,07,05,12,9.80
2015,05,07,05,13,9.80
2015,05,07,05,14,9.80
2015,05,07,05,15,9.90
2015,05,07,05,16,9.90
2015,05,07,05,17,9.90
2015,05,07,05,18,9.90
2015,05,07,05,19,9.90
2015,05,07,05,20,9.90
2015,05,07,05,21,9.90
2015,05,07,05,22,9.90
2015,05,07,05,23,9.90
2015,05,07,05,24,9.90
2015,05,07,05,25,9.90
2015,05,07,05,26,9.90
2015,05,07,05,27,9.80
2015,05,07,05,28,9.80
2015,05,07,05,29,9.80
2015,05,07,05,30,9.80
2015,05,07,05,31,9.80
2015,05,07,05,32,9.80
2015,05,07,05,33,9.80
2015,05,07,05,34,9.80
2015,05,07,05,35,9.80
2015,05,07,05,36,9.80
2015,05,07,05,37,9.80
2015,05,07,05,38,9.80
2015,05,07,05,39,9.80
2015,05,07,05,40,9.80
2015,05,07,05,41,9.80
2015,05,07,05,42,9.70
2015,05,07,05,43,9.70
2015,05,07,05,44,9.70
2015,05,07,05,45,9.70
2015,05,07,05,46,9.60
2015,05,07,05,47,9.60
2015,05,07,05,48,9.60
2015,05,07,05,49,9.50
2015,05,07,05,50,9.50
2015,05,07,05,51,9.40
2015,05,07,05,52,9.40
2015,05,07,05,53,9.40
2015,05,07,05,54,9.30
2015,05,07,05,55,9.30
2015,05,07,05,56,9.30
2015,05,07,05,57,9.30
2015,05,07,05,58,9.20
2015,05,07,05,59,9.20
2015,05,07,06,00,9.20
2015,05,07,06,01,9.20
2015,05,07,06,02,9.20
2015,05,07,06,03,9.10
2015,05,07,06,04,9.10
2015,05,07,06,05,9.10
2015,05,07,06,06,9.10
2015,05,07,06,07,9.10
2015,05,07,06,08,9.10
2015,05,07,06,09,9.10
2015,05,07,06,10,9.10
2015,05,07,06,11,9.10
2015,05,07,06,12,9.00
2015,05,07,06,13,9.00
2015,05,07,06,14,9.00
2015,05,07,06,15,9.00
2015,05,07,06,16,8.90
2015,05,07,06,17,8.90
2015,05,07,06,18,8.90
2015,05,07,06,19,8.90
2015,05,07,06,20,8.90
2015,05,07,06,21,9.00
2015,05,07,06,22,9.00
2015,05,07,06,23,9.00
2015,05,07,06,24,9.10
2015,05,07,06,25,9.10
2015,05,07,06,26,9.20
2015,05,07,06,27,9.20
2015,05,07,06,28,9.30
2015,05,07,06,29,9.30
2015,05,07,06,30,9.30
2015,05,07,06,31,9.40
2015,05,07,06,32,9.40
2015,05,07,06,33,9.50
2015,05,07,06,34,9.50
2015,05,07,06,35,9.60
2015,05,07,06,36,9.60
2015,05,07,06,37,9.60
2015,05,07,06,38,9.70
2015,05,07,06,39,9.70
2015,05,07,06,40,9.70
2015,05,07,06,41,9.70
2015,05,07,06,42,9.80
2015,05,07,06,43,9.80
2015,05,07,06,44,9.80
2015,05,07,06,45,9.90
2015,05,07,06,46,9.90
2015,05,07,06,47,9.90
2015,05,07,06,48,10.00
2015,05,07,06,49,10.00
2015,05,07,06,50,10.00
2015,05,07,06,51,10.10
2015,05,07,06,52,10.10
2015,05,07,06,53,10.10
2015,05,07,06,54,10.20
2015,05,07,06,55,10.20
2015,05,07,06,56,10.20
2015,05,07,06,57,10.30
2015,05,07,06,58,10.30
2015,05,07,06,59,10.30
2015,05,07,07,00,10.40
2015,05,07,07,01,10.40
2015,05,07,07,02,10.40
2015,05,07,07,03,10.50
2015,05,07,07,04,10.50
2015,05,07,07,05,10.60
2015,05,07,07,06,10.60
2015,05,07,07,07,10.60
2015,05,07,07,08,10.70
2015,05,07,07,09,10.70
2015,05,07,07,10,10.70
2015,05,07,07,11,10.80
2015,05,07,07,12,10.80
2015,05,07,07,13,10.90
2015,05,07,07,14,10.90
2015,05,07,07,15,10.90
2015,05,07,07,16,11.00
2015,05,07,07,17,11.10
2015,05,07,07,18,11.10
2015,05,07,07,19,11.10
2015,05,07,07,20,11.20
2015,05,07,07,21,11.20
2015,05,07,07,22,11.30
2015,05,07,07,23,11.30
2015,05,07,07,24,11.30
2015,05,07,07,25,11.30
2015,05,07,07,26,11.40
2015,05,07,07,27,11.40
2015,05,07,07,28,11.50
2015,05,07,07,29,11.50
2015,05,07,07,30,11.50
2015,05,07,07,31,11.50
2015,05,07,07,32,11.50
2015,05,07,07,33,11.50
2015,05,07,07,34,11.50
2015,05,07,07,35,11.50
2015,05,07,07,36,11.50
2015,05,07,07,37,11.50
2015,05,07,07,38,11.50
2015,05,07,07,39,11.50
2015,05,07,07,40,11.50
2015,05,07,07,41,11.50
2015,05,07,07,42,11.50
2015,05,07,07,43,11.60
2015,05,07,07,44,11.60
2015,05,07,07,45,11.60
2015,05,07,07,46,11.60
2015,05,07,07,47,11.70
2015,05,07,07,48,11.70
2015,05,07,07,49,11.70
2015,05,07,07,50,11.80
2015,05,07,07,51,11.80
2015,05,07,07,52,11.90
2015,05,07,07,53,11.90
2015,05,07,07,54,11.80
2015,05,07,07,55,11.90
2015,05,07,07,56,11.90
2015,05,07,07,57,11.90
2015,05,07,07,58,11.90
2015,05,07,07,59,11.90
2015,05,07,08,00,11.90
2015,05,07,08,01,11.90
2015,05,07,08,02,11.90
2015,05,07,08,03,12.00
2015,05,07,08,04,12.00
2015,05,07,08,05,11.90
2015,05,07,08,06,11.90
2015,05,07,08,07,11.90
2015,05,07,08,08,11.90
2015,05,07,08,09,11.80
2015,05,07,08,10,11.90
2015,05,07,08,11,11.90
2015,05,07,08,12,11.90
2015,05,07,08,13,11.90
2015,05,07,08,14,11.90
2015,05,07,08,15,11.90
2015,05,07,08,16,12.00
2015,05,07,08,17,12.00
2015,05,07,08,18,12.00
2015,05,07,08,19,12.00
2015,05,07,08,20,12.00
2015,05,07,08,21,12.00
2015,05,07,08,22,12.00
2015,05,07,08,23,12.10
2015,05,07,08,24,12.10
2015,05,07,08,25,12.10
2015,05,07,08,26,12.10
2015,05,07,08,27,12.10
2015,05,07,08,28,12.00
2015,05,07,08,29,12.10
2015,05,07,08,30,12.00
2015,05,07,08,31,12.00
2015,05,07,08,32,12.00
2015,05,07,08,33,12.00
2015,05,07,08,34,12.00
2015,05,07,08,35,12.00
2015,05,07,08,36,12.00
2015,05,07,08,37,12.00
2015,05,07,08,38,12.00
2015,05,07,08,39,12.00
2015,05,07,08,40,12.10
2015,05,07,08,41,12.10
2015,05,07,08,42,12.20
2015,05,07,08,43,12.20
2015,05,07,08,44,12.20
2015,05,07,08,45,12.30
2015,05,07,08,46,12.30
2015,05,07,08,47,12.30
2015,05,07,08,48,12.30
2015,05,07,08,49,12.40
2015,05,07,08,50,12.50
2015,05,07,08,51,12.60
2015,05,07,08,52,12.60
2015,05,07,08,53,12.60
2015,05,07,08,54,12.70
2015,05,07,08,55,12.80
2015,05,07,08,56,12.80
2015,05,07,08,57,12.80
2015,05,07,08,58,12.80
2015,05,07,08,59,12.90
2015,05,07,09,00,12.90
2015,05,07,09,01,12.90
2015,05,07,09,02,12.90
2015,05,07,09,03,12.90
2015,05,07,09,04,12.90
2015,05,07,09,05,12.80
2015,05,07,09,06,12.80
2015,05,07,09,07,12.80
2015,05,07,09,08,12.80
2015,05,07,09,09,12.80
2015,05,07,09,10,12.80
2015,05,07,09,11,12.90
2015,05,07,09,12,12.90
2015,05,07,09,13,12.90
2015,05,07,09,14,13.00
2015,05,07,09,15,13.00
2015,05,07,09,16,13.00
2015,05,07,09,17,13.00
2015,05,07,09,18,12.90
2015,05,07,09,19,12.80
2015,05,07,09,20,12.80
2015,05,07,09,21,12.80
2015,05,07,09,22,12.70
2015,05,07,09,23,12.80
2015,05,07,09,24,12.80
2015,05,07,09,25,12.80
2015,05,07,09,26,12.80
2015,05,07,09,27,12.80
2015,05,07,09,28,12.80
2015,05,07,09,29,12.90
2015,05,07,09,30,12.90
2015,05,07,09,31,13.00
2015,05,07,09,32,13.10
2015,05,07,09,33,13.10
2015,05,07,09,34,13.10
2015,05,07,09,35,13.10
2015,05,07,09,36,13.00
2015,05,07,09,37,13.00
2015,05,07,09,38,12.90
2015,05,07,09,39,12.90
2015,05,07,09,40,12.90
2015,05,07,09,41,12.80
2015,05,07,09,42,12.80
2015,05,07,09,43,12.80
2015,05,07,09,44,12.70
2015,05,07,09,45,12.70
2015,05,07,09,46,12.70
2015,05,07,09,47,12.70
2015,05,07,09,48,12.70
2015,05,07,09,49,12.70
2015,05,07,09,50,12.70
2015,05,07,09,51,12.70
2015,05,07,09,52,12.70
2015,05,07,09,53,12.70
2015,05,07,09,54,12.70
2015,05,07,09,55,12.70
2015,05,07,09,56,12.80
2015,05,07,09,57,12.80
2015,05,07,09,58,12.80
2015,05,07,09,59,12.80
2015,05,07,10,00,12.80
2015,05,07,10,01,12.90
2015,05,07,10,02,12.90
2015,05,07,10,03,13.00
2015,05,07,10,04,13.00
2015,05,07,10,05,12.90
2015,05,07,10,06,12.90
2015,05,07,10,07,12.90
2015,05,07,10,08,12.90
2015,05,07,10,09,12.90
2015,05,07,10,10,12.90
2015,05,07,10,11,12.80
2015,05,07,10,12,12.90
2015,05,07,10,13,12.90
2015,05,07,10,14,13.00
2015,05,07,10,15,13.00
2015,05,07,10,16,13.10
2015,05,07,10,17,13.20
2015,05,07,10,18,13.30
2015,05,07,10,19,13.40
2015,05,07,10,20,13.50
2015,05,07,10,21,13.60
2015,05,07,10,22,13.60
2015,05,07,10,23,13.60
2015,05,07,10,24,13.70
2015,05,07,10,25,13.70
2015,05,07,10,26,13.70
2015,05,07,10,27,13.70
2015,05,07,10,28,13.70
2015,05,07,10,29,13.80
2015,05,07,10,30,13.80
2015,05,07,10,31,13.80
2015,05,07,10,32,13.80
2015,05,07,10,33,13.80
2015,05,07,10,34,13.90
2015,05,07,10,35,13.90
2015,05,07,10,36,13.90
2015,05,07,10,37,14.00
2015,05,07,10,38,14.00
2015,05,07,10,39,14.00
2015,05,07,10,40,14.10
2015,05,07,10,41,14.10
2015,05,07,10,42,14.20
2015,05,07,10,43,14.30
2015,05,07,10,44,14.40
2015,05,07,10,45,14.50
2015,05,07,10,46,14.60
2015,05,07,10,47,14.70
2015,05,07,10,48,14.60
2015,05,07,10,49,14.60
2015,05,07,10,50,14.60
2015,05,07,10,51,14.60
2015,05,07,10,52,14.70
2015,05,07,10,53,14.80
2015,05,07,10,54,14.80
2015,05,07,10,55,14.80
2015,05,07,10,56,14.80
2015,05,07,10,57,14.70
2015,05,07,10,58,14.70
2015,05,07,10,59,14.80
2015,05,07,11,00,14.90
2015,05,07,11,01,14.90
2015,05,07,11,02,14.90
2015,05,07,11,03,15.00
2015,05,07,11,04,14.90
2015,05,07,11,05,15.00
2015,05,07,11,06,15.00
2015,05,07,11,07,15.00
2015,05,07,11,08,14.90
2015,05,07,11,09,14.90
2015,05,07,11,10,14.80
2015,05,07,11,11,14.70
2015,05,07,11,12,14.70
2015,05,07,11,13,14.70
2015,05,07,11,14,14.70
2015,05,07,11,15,14.80
2015,05,07,11,16,14.70
2015,05,07,11,17,14.60
2015,05,07,11,18,14.60
2015,05,07,11,19,14.60
2015,05,07,11,20,14.60
2015,05,07,11,21,14.60
2015,05,07,11,22,14.60
2015,05,07,11,23,14.60
2015,05,07,11,24,14.60
2015,05,07,11,25,14.70
2015,05,07,11,26,14.70
2015,05,07,11,27,14.80
2015,05,07,11,28,14.70
2015,05,07,11,29,14.70
2015,05,07,11,30,14.70
2015,05,07,11,31,14.50
2015,05,07,11,32,14.40
2015,05,07,11,33,14.40
2015,05,07,11,34,14.40
2015,05,07,11,35,14.50
2015,05,07,11,36,14.60
2015,05,07,11,37,14.60
2015,05,07,11,38,14.70
2015,05,07,11,39,14.70
2015,05,07,11,40,14.70
2015,05,07,11,41,14.70
2015,05,07,11,42,14.80
2015,05,07,11,43,14.80
2015,05,07,11,44,14.80
2015,05,07,11,45,14.80
2015,05,07,11,46,14.70
2015,05,07,11,47,14.60
2015,05,07,11,48,14.60
2015,05,07,11,49,14.60
2015,05,07,11,50,14.60
2015,05,07,11,51,14.70
2015,05,07,11,52,14.80
2015,05,07,11,53,15.00
2015,05,07,11,54,15.00
2015,05,07,11,55,15.00
2015,05,07,11,56,15.10
2015,05,07,11,57,15.20
2015,05,07,11,58,15.30
2015,05,07,11,59,15.30
2015,05,07,12,00,15.20
2015,05,07,12,01,15.20
2015,05,07,12,02,15.20
2015,05,07,12,03,15.30
2015,05,07,12,04,15.20
2015,05,07,12,05,15.20
2015,05,07,12,06,15.20
2015,05,07,12,07,15.20
2015,05,07,12,08,15.20
2015,05,07,12,09,15.10
2015,05,07,12,10,15.20
2015,05,07,12,11,15.30
2015,05,07,12,12,15.40
2015,05,07,12,13,15.40
2015,05,07,12,14,15.40
2015,05,07,12,15,15.30
2015,05,07,12,16,15.30
2015,05,07,12,17,15.30
2015,05,07,12,18,15.30
2015,05,07,12,19,15.30
2015,05,07,12,20,15.30
2015,05,07,12,21,15.30
2015,05,07,12,22,15.30
2015,05,07,12,23,15.30
2015,05,07,12,24,15.20
2015,05,07,12,25,15.10
2015,05,07,12,26,15.10
2015,05,07,12,27,15.10
2015,05,07,12,28,15.20
2015,05,07,12,29,15.20
2015,05,07,12,30,15.20
2015,05,07,12,31,15.10
2015,05,07,12,32,15.20
2015,05,07,12,33,15.20
2015,05,07,12,34,15.30
2015,05,07,12,35,15.30
2015,05,07,12,36,15.30
2015,05,07,12,37,15.30
2015,05,07,12,38,15.40
2015,05,07,12,39,15.40
2015,05,07,12,40,15.40
2015,05,07,12,41,15.40
2015,05,07,12,42,15.20
2015,05,07,12,43,15.10
2015,05,07,12,44,15.10
2015,05,07,12,45,15.10
2015,05,07,12,46,15.10
2015,05,07,12,47,15.20
2015,05,07,12,48,15.20
2015,05,07,12,49,15.20
2015,05,07,12,50,15.30
2015,05,07,12,51,15.30
2015,05,07,12,52,15.30
2015,05,07,12,53,15.30
2015,05,07,12,54,15.30
2015,05,07,12,55,15.30
2015,05,07,12,56,15.40
2015,05,07,12,57,15.40
2015,05,07,12,58,15.40
2015,05,07,12,59,15.50
2015,05,07,13,00,15.50
2015,05,07,13,01,15.50
2015,05,07,13,02,15.60
2015,05,07,13,03,15.60
2015,05,07,13,04,15.50
2015,05,07,13,05,15.50
2015,05,07,13,06,15.50
2015,05,07,13,07,15.40
2015,05,07,13,08,15.40
2015,05,07,13,09,15.40
2015,05,07,13,10,15.50
2015,05,07,13,11,15.50
2015,05,07,13,12,15.60
2015,05,07,13,13,15.60
2015,05,07,13,14,15.60
2015,05,07,13,15,15.60
2015,05,07,13,16,15.70
2015,05,07,13,17,15.70
2015,05,07,13,18,15.80
2015,05,07,13,19,15.80
2015,05,07,13,20,15.80
2015,05,07,13,21,15.80
2015,05,07,13,22,15.80
2015,05,07,13,23,15.90
2015,05,07,13,24,16.00
2015,05,07,13,25,16.10
2015,05,07,13,26,16.10
2015,05,07,13,27,16.10
2015,05,07,13,28,16.00
2015,05,07,13,29,16.00
2015,05,07,13,30,16.10
2015,05,07,13,31,16.10
2015,05,07,13,32,16.20
2015,05,07,13,33,16.30
2015,05,07,13,34,16.30
2015,05,07,13,35,16.30
2015,05,07,13,36,16.40
2015,05,07,13,37,16.40
2015,05,07,13,38,16.50
2015,05,07,13,39,16.60
2015,05,07,13,40,16.60
2015,05,07,13,41,16.60
2015,05,07,13,42,16.60
2015,05,07,13,43,16.60
2015,05,07,13,44,16.70
2015,05,07,13,45,16.70
2015,05,07,13,46,16.70
2015,05,07,13,47,16.70
2015,05,07,13,48,16.70
2015,05,07,13,49,16.70
2015,05,07,13,50,16.70
2015,05,07,13,51,16.70
2015,05,07,13,52,16.70
2015,05,07,13,53,16.80
2015,05,07,13,54,16.90
2015,05,07,13,55,17.00
2015,05,07,13,56,17.10
2015,05,07,13,57,17.20
2015,05,07,13,58,17.20
2015,05,07,13,59,17.10
2015,05,07,14,00,17.10
2015,05,07,14,01,17.00
2015,05,07,14,02,16.80
2015,05,07,14,03,16.70
2015,05,07,14,04,16.70
2015,05,07,14,05,16.80
2015,05,07,14,06,16.80
2015,05,07,14,07,16.90
2015,05,07,14,08,17.00
2015,05,07,14,09,17.00
2015,05,07,14,10,17.00
2015,05,07,14,11,16.90
2015,05,07,14,12,16.70
2015,05,07,14,13,16.60
2015,05,07,14,14,16.60
2015,05,07,14,15,16.50
2015,05,07,14,16,16.50
2015,05,07,14,17,16.40
2015,05,07,14,18,16.50
2015,05,07,14,19,16.60
2015,05,07,14,20,16.60
2015,05,07,14,21,16.70
2015,05,07,14,22,16.70
2015,05,07,14,23,16.80
2015,05,07,14,24,16.80
2015,05,07,14,25,16.70
2015,05,07,14,26,16.70
2015,05,07,14,27,16.60
2015,05,07,14,28,16.60
2015,05,07,14,29,16.70
2015,05,07,14,30,16.70
2015,05,07,14,31,16.80
2015,05,07,14,32,16.80
2015,05,07,14,33,16.90
2015,05,07,14,34,16.90
2015,05,07,14,35,17.00
2015,05,07,14,36,17.10
2015,05,07,14,37,17.10
2015,05,07,14,38,17.10
2015,05,07,14,39,17.20
2015,05,07,14,40,17.30
2015,05,07,14,41,17.50
2015,05,07,14,42,17.60
2015,05,07,14,43,17.70
2015,05,07,14,44,17.70
2015,05,07,14,45,17.60
2015,05,07,14,46,17.60
2015,05,07,14,47,17.50
2015,05,07,14,48,17.50
2015,05,07,14,49,17.50
2015,05,07,14,50,17.60
2015,05,07,14,51,17.60
2015,05,07,14,52,17.70
2015,05,07,14,53,17.70
2015,05,07,14,54,17.80
2015,05,07,14,55,17.80
2015,05,07,14,56,17.80
2015,05,07,14,57,17.80
2015,05,07,14,58,17.80
2015,05,07,14,59,17.80
2015,05,07,15,00,17.80
2015,05,07,15,01,17.80
2015,05,07,15,02,17.80
2015,05,07,15,03,17.80
2015,05,07,15,04,17.70
2015,05,07,15,05,17.70
2015,05,07,15,06,17.70
2015,05,07,15,07,17.70
2015,05,07,15,08,17.70
2015,05,07,15,09,17.80
2015,05,07,15,10,17.80
2015,05,07,15,11,17.90
2015,05,07,15,12,17.80
2015,05,07,15,13,17.80
2015,05,07,15,14,17.80
2015,05,07,15,15,17.80
2015,05,07,15,16,17.90
2015,05,07,15,17,18.00
2015,05,07,15,18,18.10
2015,05,07,15,19,18.10
2015,05,07,15,20,18.10
2015,05,07,15,21,18.10
2015,05,07,15,22,18.00
2015,05,07,15,23,18.00
2015,05,07,15,24,17.90
2015,05,07,15,25,17.90
2015,05,07,15,26,17.80
2015,05,07,15,27,17.70
2015,05,07,15,28,17.70
2015,05,07,15,29,17.80
2015,05,07,15,30,17.90
2015,05,07,15,31,17.90
2015,05,07,15,32,17.90
2015,05,07,15,33,17.90
2015,05,07,15,34,18.00
2015,05,07,15,35,18.10
2015,05,07,15,36,18.10
2015,05,07,15,37,18.00
2015,05,07,15,38,18.00
2015,05,07,15,39,17.90
2015,05,07,15,40,17.80
2015,05,07,15,41,17.80
2015,05,07,15,42,17.70
2015,05,07,15,43,17.70
2015,05,07,15,44,17.70
2015,05,07,15,45,17.70
2015,05,07,15,46,17.80
2015,05,07,15,47,17.80
2015,05,07,15,48,17.80
2015,05,07,15,49,17.80
2015,05,07,15,50,17.90
2015,05,07,15,51,18.00
2015,05,07,15,52,18.00
2015,05,07,15,53,17.90
2015,05,07,15,54,17.80
2015,05,07,15,55,17.80
2015,05,07,15,56,17.80
2015,05,07,15,57,17.90
2015,05,07,15,58,18.00
2015,05,07,15,59,18.10
2015,05,07,16,00,18.10
2015,05,07,16,01,18.20
2015,05,07,16,02,18.30
2015,05,07,16,03,18.40
2015,05,07,16,04,18.50
2015,05,07,16,05,18.50
2015,05,07,16,06,18.50
2015,05,07,16,07,18.50
2015,05,07,16,08,18.60
2015,05,07,16,09,18.60
2015,05,07,16,10,18.60
2015,05,07,16,11,18.50
2015,05,07,16,12,18.50
2015,05,07,16,13,18.40
2015,05,07,16,14,18.40
2015,05,07,16,15,18.40
2015,05,07,16,16,18.30
2015,05,07,16,17,18.30
2015,05,07,16,18,18.30
2015,05,07,16,19,18.30
2015,05,07,16,20,18.30
2015,05,07,16,21,18.30
2015,05,07,16,22,18.30
2015,05,07,16,23,18.30
2015,05,07,16,24,18.30
2015,05,07,16,25,18.30
2015,05,07,16,26,18.40
2015,05,07,16,27,18.50
2015,05,07,16,28,18.40
2015,05,07,16,29,18.40
2015,05,07,16,30,18.40
2015,05,07,16,31,18.40
2015,05,07,16,32,18.40
2015,05,07,16,33,18.40
2015,05,07,16,34,18.40
2015,05,07,16,35,18.40
2015,05,07,16,36,18.40
2015,05,07,16,37,18.30
2015,05,07,16,38,18.30
2015,05,07,16,39,18.30
2015,05,07,16,40,18.40
2015,05,07,16,41,18.40
2015,05,07,16,42,18.40
2015,05,07,16,43,18.50
2015,05,07,16,44,18.50
2015,05,07,16,45,18.40
2015,05,07,16,46,18.40
2015,05,07,16,47,18.50
2015,05,07,16,48,18.50
2015,05,07,16,49,18.50
2015,05,07,16,50,18.40
2015,05,07,16,51,18.40
2015,05,07,16,52,18.40
2015,05,07,16,53,18.40
2015,05,07,16,54,18.50
2015,05,07,16,55,18.50
2015,05,07,16,56,18.60
2015,05,07,16,57,18.60
2015,05,07,16,58,18.70
2015,05,07,16,59,18.70
2015,05,07,17,00,18.70
2015,05,07,17,01,18.70
2015,05,07,17,02,18.70
2015,05,07,17,03,18.70
2015,05,07,17,04,18.70
2015,05,07,17,05,18.70
2015,05,07,17,06,18.70
2015,05,07,17,07,18.60
2015,05,07,17,08,18.60
2015,05,07,17,09,18.60
2015,05,07,17,10,18.60
2015,05,07,17,11,18.60
2015,05,07,17,12,18.60
2015,05,07,17,13,18.50
2015,05,07,17,14,18.50
2015,05,07,17,15,18.50
2015,05,07,17,16,18.60
2015,05,07,17,17,18.60
2015,05,07,17,18,18.70
2015,05,07,17,19,18.70
2015,05,07,17,20,18.70
2015,05,07,17,21,18.70
2015,05,07,17,22,18.80
2015,05,07,17,23,18.80
2015,05,07,17,24,18.80
2015,05,07,17,25,18.80
2015,05,07,17,26,18.80
2015,05,07,17,27,18.80
2015,05,07,17,28,18.90
2015,05,07,17,29,18.90